Regional Weather Roundup
Issued by NWS

Home | Current Version | Previous Version | Graphics & Text | Print | Product List | Glossary On
Versions: 1 2 3 4 5 6 7 8 9 10 11 12 13 14 15 16 17 18 19 20 21 22 23 24 25 26 27
000
ASUS45 KBOI 191510
RWRID

IDAHO REGIONAL WEATHER ROUNDUP
NATIONAL WEATHER SERVICE BOISE ID
900 AM MDT SAT AUG 19 2017

NOTE: "FAIR" INDICATES FEW OR NO CLOUDS BELOW 12000 FEET
WITH NO SIGNIFICANT WEATHER AND/OR OBSTRUCTIONS TO VISIBILITY

IDZ012-014-191600-
SOUTHWEST IDAHO


CITY           SKY/WX    TMP DP  RH WIND       PRES   REMARKS
BOISE          SUNNY     65  37  35 CALM      30.04R
CALDWELL       SUNNY     66  41  40 SW5       30.04R
MOUNTAIN HOME  SUNNY     67  38  33 NW12      30.04R
$$

IDZ016-017-191600-
SOUTHCENTRAL IDAHO


CITY           SKY/WX    TMP DP  RH WIND       PRES   REMARKS
BURLEY         SUNNY     62  40  44 SW3       30.08R
JEROME         SUNNY     65  38  36 SW7       30.09R
TWIN FALLS     SUNNY     68  35  29 SW10      30.10R
$$

IDZ019>023-191600-
SOUTHEAST IDAHO


CITY           SKY/WX    TMP DP  RH WIND       PRES   REMARKS
IDAHO FALLS    MOSUNNY   62  40  44 SW10      30.11R
POCATELLO      SUNNY     63  31  30 W3        30.11R
REXBURG        SUNNY     55  40  56 NE5       30.12S
$$

IDZ006-010-011-018-031-032-191600-
CENTRAL IDAHO MOUNTAINS


CITY           SKY/WX    TMP DP  RH WIND       PRES   REMARKS
MCCALL         SUNNY     55  37  50 CALM      30.12R
HAILEY         MOSUNNY   57  32  38 NW10      30.15S
STANLEY          N/A     46  30  53 CALM      30.24S
SALMON         CLOUDY    54  43  66 CALM      30.09R
CHALLIS        CLOUDY    57  35  43 NW3       30.13R
$$

IDZ002-004-006-007-026-191600-
NORTHERN IDAHO


CITY           SKY/WX    TMP DP  RH WIND       PRES   REMARKS
LEWISTON       MOSUNNY   69  49  48 NW3       30.06R
LOWELL           N/A     57  46  66 CALM      30.08R
COEUR D`ALENE  PTSUNNY   61  46  57 CALM      30.06R
MULLAN PASS    SUNNY     51  37  58 W9        30.13S
$$




USA.gov is the U.S. government's official web portal to all federal, state and local government web resources and services.